Hourly Data Report for January 08, 2006

TORONTO CITY
ONTARIO

43°40'00.000" N
79°24'00.000" W
112.50 m
6158355
71508
XTO

Download Data

Hourly Data (January 2006)
Hourly Data Report for January 8, 2006
TIME
LST
Temp Definition
°C
Dew Point Definition
°C
Rel Hum Definition
%
Precip. Amount Definition
mm

Wind Dir Definition
10's deg

Wind Spd Definition
km/h
Visibility Definition
km
Stn Press Definition
kPa
Hmdx Definition


Wind Chill Definition


Weather Definition


00:00 0.3 -1.0 91   LegendMM LegendMM   99.31     LegendNANA
01:00 0.0 -0.9 94   LegendMM LegendMM   99.34     LegendNANA
02:00 0.1 -1.0 92   LegendMM LegendMM   99.43     LegendNANA
03:00 0.2 -1.1 91   LegendMM LegendMM   99.54     LegendNANA
04:00 -0.4 -1.7 91   LegendMM LegendMM   99.58     LegendNANA
05:00 -1.1 -2.3 92   LegendMM LegendMM   99.67     LegendNANA
06:00 -0.8 -2.2 90   LegendMM LegendMM   99.75     LegendNANA
07:00 -1.6 -2.7 92   LegendMM LegendMM   99.88     LegendNANA
08:00 -1.9 -3.0 92   LegendMM LegendMM   99.98     LegendNANA
09:00 -1.2 -2.1 94   LegendMM LegendMM   100.05     LegendNANA
10:00 0.6 -1.7 85   LegendMM LegendMM   100.10     LegendNANA
11:00 1.5 -1.4 81   LegendMM LegendMM   100.15     LegendNANA
12:00 1.7 -1.3 80   LegendMM LegendMM   100.11     LegendNANA
13:00 1.9 -1.7 77   LegendMM LegendMM   100.01     LegendNANA
14:00 1.1 -1.4 83   LegendMM LegendMM   99.96     LegendNANA
15:00 1.4 -0.6 87   LegendMM LegendMM   99.90     LegendNANA
16:00 1.6 -1.1 82   LegendMM LegendMM   99.82     LegendNANA
17:00 2.1 -1.1 79   LegendMM LegendMM   99.78     LegendNANA
18:00 2.4 -1.4 76   LegendMM LegendMM   99.72     LegendNANA
19:00 2.6 -1.4 75   LegendMM LegendMM   99.74     LegendNANA
20:00 3.0 -1.4 73   LegendMM LegendMM   99.63     LegendNANA
21:00 3.1 -1.1 74   LegendMM LegendMM   99.52     LegendNANA
22:00 3.1 -0.9 75   LegendMM LegendMM   99.42     LegendNANA
23:00 3.2 0.0 79   LegendMM LegendMM   99.33     LegendNANA

Notes on Data Quality.

Legend

  • E = Estimated
  • M = Missing
  • NA = Not Available*
  • [empty] = Indicates an unobserved value
Date modified: